GPS BIIR-16M

Last updated on Sat Apr 13 2024 01:02:27 GMT+0100 (British Summer Time)

1 29601U 06052A 24102.68999208 .00000004 00000+0 00000+0 0 9993 2 29601 55.1649 245.6134 0086832 82.0490 278.8969 2.00563505127437
UTC large
Height (km)
Speed (km/s)
/
Latitude / Longitude
Inclination (degrees)
Orbital Period (minutes)
Azimuth
Elevation
Range (km)
Doppler Factor

Next 0 passes for location: London (51.5072 / 0.1276)

Sorry there are no passes over London.